Weather Roundup
Issued by NWS

Home | Current Version | Previous Version | Graphics & Text | Print | Product List | Glossary Off
Versions: 1 2 3 4 5 6 7 8 9 10 11 12 13 14 15 16 17 18 19 20 21 22 23 24 25 26 27 28 29 30 31 32 33 34 35 36 37 38 39 40 41 42 43 44 45 46 47 48 49 50

000
NZUS93 KARX 180210
HRRWXR

CURRENT HOURLY OBSERVATIONS ACROSS
MUCH OF THE UPPER MISSISSIPPI VALLEY
NATIONAL WEATHER SERVICE LA CROSSE WI
900 PM CDT WED SEP 17 2014


...SOUTHEAST MINNESOTA...


CITY           SKY/WX    TMP DP  RH WIND       PRES   REMARKS
ROCHESTER      CLEAR     59  51  75 S5        30.01R
ROCHESTER/MAYO FAIR      64  50  58 SE5       30.00R
WINONA         CLEAR     59  57  94 CALM      30.00R
AUSTIN         CLEAR     57  52  82 CALM      29.99R
ALBERT LEA     CLEAR     57  55  94 CALM      29.99R
DODGE CENTER   PTCLDY    61  54  77 CALM      30.00R
PRESTON        CLEAR     60  58  92 CALM      30.01R
OWATONNA       CLEAR     59  54  82 CALM      29.99R
FARIBAULT      CLEAR     57  52  82 CALM      29.99R
$$

...ELSEWHERE IN MINNESOTA...


CITY           SKY/WX    TMP DP  RH WIND       PRES   REMARKS
MINNEAPOLIS    PTCLDY    66  52  60 E5        29.99R
INTNL FALLS    CLEAR     42  37  82 NE3       30.10S
DULUTH         CLOUDY    45  40  82 E17G24    30.10R
RED WING       CLEAR     57  54  88 CALM      29.98R
REDWOOD FALLS  CLEAR     65  55  70 E3        29.97R
MANKATO        CLEAR     64  52  63 E5        29.98R
WORTHINGTON    PTCLDY    63  55  77 NE6       29.99R
FAIRMONT       PTCLDY    63  52  67 E6        29.98R
$$

...SOUTHWEST WISCONSIN...


CITY           SKY/WX    TMP DP  RH WIND       PRES   REMARKS
LA CROSSE      CLEAR     59  55  87 SE3       29.99R
PRAIRIE DU CHI CLEAR     54  51  89 CALM      30.00R
BOSCOBEL       CLEAR     54  52  93 CALM      30.01R
LONE ROCK      CLEAR     56  49  77 CALM      30.01R
PLATTEVILLE    CLEAR     57  50  76 NE3       30.02R
FORT MC COY    CLEAR     51  50  95 CALM      30.02R
CAMP DOUGLAS   CLEAR     50  50 100 CALM      30.00R
VIROQUA        FAIR      55  51  85 S3        30.01S
WIS DELLS      CLEAR     53  49  86 CALM      30.00S
$$

...ELSEWHERE IN WISCONSIN...


CITY           SKY/WX    TMP DP  RH WIND       PRES   REMARKS
MILWAUKEE      PTCLDY    58  48  69 S3        30.01R
MADISON        CLEAR     56  51  84 CALM      30.01R
GREEN BAY      CLOUDY    55  51  86 NE21G30   30.02R
EAU CLAIRE     CLEAR     56  53  90 CALM      30.00R
BLACK RVR FLS  FAIR      51  51 100 CALM      30.00R
MEDFORD        PTCLDY    54  51  88 NE6       30.02R
WAUSAU         PTCLDY    55  52  89 N9        29.99R
WIS RAPIDS     CLEAR     52  51  97 CALM      30.02R FOG
MARSHFIELD     CLEAR     55  52  89 CALM      30.00R
RICE LAKE      CLEAR     55  49  80 NE13      30.03R
$$

...NORTHEAST IOWA...


CITY           SKY/WX    TMP DP  RH WIND       PRES   REMARKS
WATERLOO       CLEAR     53  50  89 E3        29.98R
DUBUQUE        CLEAR     55  50  83 CALM      30.01R
DECORAH        PTCLDY    57  52  82 CALM      30.00R
MASON CITY     CLEAR     54  52  93 SE5       30.00R
CHARLES CITY   CLEAR     59  52  77 E5        30.00R
OELWEIN        CLEAR     59  52  77 SE5       30.01R
$$

...ELSEWHERE IN IOWA...


CITY           SKY/WX    TMP DP  RH WIND       PRES   REMARKS
DES MOINES     CLEAR     67  57  70 E5        29.97R
IOWA CITY      CLEAR     57  55  93 CALM      30.01R
FORT DODGE     CLEAR     57  52  82 E5        29.98R
MARSHALLTOWN   CLEAR     57  52  83 E5        29.98R
CEDAR RAPIDS   CLEAR     58  54  86 CALM      29.99R
$$

...NORTHERN ILLINOIS...


CITY           SKY/WX    TMP DP  RH WIND       PRES   REMARKS
CHICAGO-OHARE  CLEAR     62  46  55 CALM      30.01R
DUPAGE         CLEAR     57  48  72 E3        30.01R
CHICAGO-MIDWAY CLEAR     63  50  62 E3        30.01R
MOLINE         CLEAR     55  51  86 CALM      30.00R
ROCKFORD       CLEAR     58  52  80 CALM      30.03R
STERLING       CLEAR     54  48  82 CALM      30.01R
PEORIA         CLOUDY    60  54  80 CALM      30.01R
$$

NOTE: "FAIR" INDICATES FEW OR NO CLOUDS BELOW 12,000 FEET WITH NO
SIGNIFICANT WEATHER AND/OR OBSTRUCTIONS TO VISIBILITY. WIND
SPEEDS ARE IN MILES-PER-HOUR.



USA.gov is the U.S. government's official web portal to all federal, state and local government web resources and services.